Location: Newark
(34.6283°N, 36.0776°E)
Time: 23:28:22
(UTC+00:00)

A-11 Canister half - Pass Details

Date: 19 September 2019
Orbit: 1527 x 1682 km, 47.3° (Epoch: 17 October)

Event Time Altitude Azimuth Distance (km) Brightness Sun altitude
Rises 11:06:08 0° 287° (WNW) 4,885 11.8 50.0°
Reaches altitude 10° 11:11:34 10° 264° (W) 3,917 11.7 49.2°
Maximum altitude 11:15:48 13° 238° (WSW) 3,654 12.0 48.6°
Drops below altitude 10° 11:20:03 10° 213° (SSW) 3,932 12.1 48.0°
Sets 11:25:36 0° 189° (S) 4,917 12.2 47.2°
